Regional Weather Roundup
Issued by NWS

Home | Current Version | Previous Version | Graphics & Text | Print | Product List | Glossary Off
Versions: 1 2 3 4 5 6 7 8 9 10 11 12 13 14 15 16 17 18 19 20 21 22 23 24 25 26 27 28 29 30 31 32 33 34 35 36 37 38 39 40 41 42 43 44 45 46 47 48 49 50

000
ASUS44 KMEG 261310
RWRTN
TENNESSEE HOURLY STATE WEATHER ROUNDUP
NATIONAL WEATHER SERVICE MEMPHIS TN
800 AM CDT MON JUN 26 2017

TNZ002-004-019-021-049-052-054-088>092-261400-
WEST TENNESSEE

CITY           SKY/WX    TMP DP  RH WIND       PRES   REMARKS
MEMPHIS INTL   CLOUDY    70  65  84 CALM      30.21S
NWS MEMPHIS      N/A     67 N/A N/A MISG        N/A
JACKSON        MOSUNNY   66  63  90 CALM      30.20S
SOMERVILLE     PTSUNNY   66  63  88 CALM      30.20S
COVINGTON      MOSUNNY   68  64  88 CALM      30.20S
UNION CITY     MOSUNNY   68  57  68 N5        30.21R
BOLIVAR        PTSUNNY   64  61  88 CALM      30.21R
PARIS          MOSUNNY   66  57  72 CALM      30.21R
HUNTINGDON     SUNNY     68  59  73 E5        30.21R
LEXINGTON      SUNNY     63  63 100 CALM      30.21R
SELMER         SUNNY     66  63  88 CALM      30.21R
SAVANNAH       SUNNY     66  61  82 CALM      30.20S
$$

TNZ008-025-027-028-033-062-065-066-261400-
NORTH MIDDLE TENNESSEE

CITY           SKY/WX    TMP DP  RH WIND       PRES   REMARKS
NASHVILLE      CLOUDY    68  56  65 NW6       30.22R
PORTLAND       SUNNY     64  57  77 CALM      30.21R
CLARKSVILLE    CLOUDY    66  57  72 N5        30.22R
SMYRNA         SUNNY     67  59  75 CALM      30.22R
COOKEVILLE     SUNNY     63  57  82 CALM      30.21R
GALLATIN       SUNNY     64  61  88 CALM      30.24R
CROSSVILLE     CLOUDY    63  53  70 CALM      30.24R
$$

TNZ061-075-076-078-094-096-097-261400-
SOUTH MIDDLE TENNESSEE

CITY           SKY/WX    TMP DP  RH WIND       PRES   REMARKS
FAYETTEVILLE   SUNNY     66  59  77 CALM      30.21S
TULLAHOMA      SUNNY     64  57  77 CALM      30.23S
WINCHESTER     SUNNY     64  57  77 CALM        N/A
MCMINNVILLE    SUNNY     64  63  94 CALM      30.22S
COLUMBIA       SUNNY     64  59  82 CALM      30.20R
SHELBYVILLE    SUNNY     64  59  82 CALM      30.21S
$$

TNZ017-018-042-046-047-261400-
NORTHEAST TENNESSEE

CITY           SKY/WX    TMP DP  RH WIND       PRES   REMARKS
TRI CITIES     MOSUNNY   62  55  77 CALM      30.21S
ELIZABETHTON   SUNNY     63  54  72 CALM      30.22R
$$

TNZ012-013-036-069-073-074-261400-
CENTRAL EAST TENNESSEE

CITY           SKY/WX    TMP DP  RH WIND       PRES   REMARKS
KNOXVILLE      PTSUNNY   62  58  86 S6        30.20R
OAK RIDGE      CLOUDY    63  55  75 CALM      30.21F
DOWNTOWN KNOXV SUNNY     61  59  94 CALM      30.19F
GATLINBURG     SUNNY     64  54  68 NW3       30.20R
MORRISTOWN     SUNNY     68  55  64 VRB5      30.19S
JACKSBORO      SUNNY     64  55  72 CALM      30.23S
$$

TNZ083-085-099-261400-
SOUTHEAST TENNESSEE

CITY           SKY/WX    TMP DP  RH WIND       PRES   REMARKS
CHATTANOOGA    PTSUNNY   64  56  75 CALM      30.21S
$$

SKY/WX REPORTED AS FAIR MEANS FEW OR NO CLOUDS BELOW
12 THOUSAND FEET.





USA.gov is the U.S. government's official web portal to all federal, state and local government web resources and services.